"read_dt","SO2 (ppb)","flags","PMT voltage (V)","lamp voltage (V)","lamp intensity (Hz)","internal temp (C)","react chamber temp (C)","sample flow (l/min)","pres (mmHg)","SO2 bkg (ppb)","SO2 coefficient"
2014-10-14 00:00:00,1910E-3,5C000000,-0724,0828,12284,028.1,045.5,0.476,735.5,01.18,0.508
2014-10-14 00:01:00,1842E-3,5C000000,-0724,0827,12245,028.1,045.5,0.476,735.5,01.18,0.508
2014-10-14 00:02:00,1851E-3,5C000000,-0724,0828,12308,028.1,045.4,0.476,735.5,01.18,0.508
2014-10-14 00:03:00,1864E-3,5C000000,-0724,0828,12216,028.2,045.5,0.476,735.5,01.18,0.508
2014-10-14 00:04:00,1720E-3,5C000000,-0724,0827,12108,028.2,045.5,0.476,735.5,01.18,0.508
2014-10-14 00:05:00,1785E-3,5C000000,-0724,0827,12195,028.1,045.5,0.476,735.5,01.18,0.508
2014-10-14 00:06:00,1800E-3,5C000000,-0724,0827,12097,028.1,045.4,0.476,735.5,01.18,0.508
2014-10-14 00:07:00,1806E-3,5C000000,-0724,0827,12228,028.1,045.5,0.476,735.5,01.18,0.508
2014-10-14 00:08:00,1838E-3,5C000000,-0724,0827,12334,028.0,045.5,0.477,735.5,01.18,0.508
2014-10-14 00:09:00,1888E-3,5C000000,-0724,0827,12106,028.0,045.4,0.477,735.5,01.18,0.508
2014-10-14 00:10:00,1867E-3,5C000000,-0724,0828,12290,028.0,045.4,0.477,735.5,01.18,0.508
2014-10-14 00:11:00,1734E-3,5C000000,-0724,0826,12229,027.9,045.4,0.477,735.5,01.18,0.508
2014-10-14 00:12:00,1887E-3,5C000000,-0724,0827,12290,027.9,045.5,0.477,735.5,01.18,0.508
2014-10-14 00:13:00,1887E-3,5C000000,-0724,0826,12215,027.9,045.5,0.476,735.5,01.18,0.508
2014-10-14 00:14:00,1832E-3,5C000000,-0724,0826,12047,027.9,045.4,0.476,735.5,01.18,0.508
2014-10-14 00:15:00,1870E-3,5C000000,-0724,0827,12230,027.9,045.4,0.477,735.5,01.18,0.508
2014-10-14 00:16:00,1805E-3,5C000000,-0724,0827,12165,027.9,045.4,0.477,735.5,01.18,0.508
2014-10-14 00:17:00,1839E-3,5C000000,-0724,0827,12235,027.8,045.4,0.477,735.5,01.18,0.508
2014-10-14 00:18:00,1764E-3,5C000000,-0724,0826,12338,027.9,045.5,0.477,735.5,01.18,0.508
2014-10-14 00:19:00,1914E-3,5C000000,-0724,0827,12268,027.9,045.4,0.476,735.5,01.18,0.508
2014-10-14 00:20:00,1850E-3,5C000000,-0724,0826,12203,027.8,045.4,0.477,735.5,01.18,0.508
2014-10-14 00:21:00,1720E-3,5C000000,-0724,0827,12145,027.8,045.4,0.477,735.5,01.18,0.508
2014-10-14 00:22:00,1762E-3,5C000000,-0724,0827,12160,027.8,045.4,0.477,735.5,01.18,0.508
2014-10-14 00:23:00,1724E-3,5C000000,-0724,0827,12275,027.8,045.4,0.477,735.5,01.18,0.508
2014-10-14 00:24:00,1907E-3,5C000000,-0724,0827,12242,027.8,045.5,0.477,735.5,01.18,0.508
2014-10-14 00:25:00,1732E-3,5C000000,-0724,0827,12217,027.8,045.4,0.477,735.5,01.18,0.508
2014-10-14 00:26:00,1719E-3,5C000000,-0724,0828,12176,027.7,045.4,0.476,735.5,01.18,0.508
2014-10-14 00:27:00,1738E-3,5C000000,-0724,0827,12306,027.8,045.4,0.476,735.5,01.18,0.508
2014-10-14 00:28:00,1817E-3,5C000000,-0724,0828,12304,027.8,045.4,0.477,735.5,01.18,0.508
2014-10-14 00:29:00,1763E-3,5C000000,-0724,0828,12400,027.8,045.5,0.477,735.5,01.18,0.508
2014-10-14 00:30:00,1822E-3,5C000000,-0724,0828,12207,027.8,045.4,0.477,735.5,01.18,0.508
2014-10-14 00:31:00,1711E-3,5C000000,-0724,0827,12352,027.8,045.4,0.477,735.5,01.18,0.508
2014-10-14 00:32:00,1861E-3,5C000000,-0724,0827,12228,027.9,045.4,0.477,735.5,01.18,0.508
2014-10-14 00:33:00,1784E-3,5C000000,-0724,0827,12167,027.9,045.4,0.477,735.5,01.18,0.508
2014-10-14 00:34:00,1775E-3,5C000000,-0724,0827,12234,027.9,045.4,0.477,735.5,01.18,0.508
2014-10-14 00:35:00,1777E-3,5C000000,-0724,0827,11978,027.9,045.5,0.476,735.5,01.18,0.508
2014-10-14 00:36:00,1799E-3,5C000000,-0724,0827,12134,027.9,045.5,0.476,735.5,01.18,0.508
2014-10-14 00:37:00,1791E-3,5C000000,-0724,0827,12185,027.8,045.5,0.477,735.5,01.18,0.508
2014-10-14 00:38:00,1677E-3,5C000000,-0724,0827,12229,027.8,045.4,0.477,735.5,01.18,0.508
2014-10-14 00:39:00,1794E-3,5C000000,-0724,0827,12153,027.8,045.4,0.477,735.5,01.18,0.508
2014-10-14 00:40:00,1837E-3,5C000000,-0724,0826,12371,027.8,045.4,0.477,735.5,01.18,0.508
2014-10-14 00:41:00,1837E-3,5C000000,-0724,0828,12299,027.8,045.5,0.477,735.5,01.18,0.508
2014-10-14 00:42:00,1823E-3,5C000000,-0724,0827,12221,027.8,045.4,0.477,735.5,01.18,0.508
2014-10-14 00:43:00,1834E-3,5C000000,-0724,0828,12138,027.8,045.4,0.477,735.5,01.18,0.508
2014-10-14 00:44:00,1829E-3,5C000000,-0724,0828,12385,027.8,045.4,0.477,735.5,01.18,0.508
2014-10-14 00:45:00,1778E-3,5C000000,-0724,0826,12230,027.8,045.4,0.477,735.5,01.18,0.508
2014-10-14 00:46:00,1846E-3,5C000000,-0724,0828,12145,027.8,045.5,0.477,735.5,01.18,0.508
2014-10-14 00:47:00,1790E-3,5C000000,-0724,0828,12204,027.8,045.4,0.477,735.5,01.18,0.508
2014-10-14 00:48:00,1793E-3,5C000000,-0724,0827,12228,027.8,045.4,0.477,735.5,01.18,0.508
2014-10-14 00:49:00,1830E-3,5C000000,-0724,0827,12211,027.8,045.4,0.476,735.5,01.18,0.508
2014-10-14 00:50:00,1780E-3,5C000000,-0724,0827,12192,027.8,045.4,0.477,735.5,01.18,0.508
2014-10-14 00:51:00,1742E-3,5C000000,-0724,0827,12115,027.8,045.5,0.477,735.5,01.18,0.508
2014-10-14 00:52:00,1749E-3,5C000000,-0724,0827,12360,027.8,045.4,0.477,735.5,01.18,0.508
2014-10-14 00:53:00,1684E-3,5C000000,-0724,0827,12257,027.8,045.4,0.477,735.5,01.18,0.508
2014-10-14 00:54:00,1788E-3,5C000000,-0724,0827,12001,027.8,045.5,0.477,735.5,01.18,0.508
2014-10-14 00:55:00,1815E-3,5C000000,-0724,0827,12123,027.8,045.4,0.477,735.5,01.18,0.508
2014-10-14 00:56:00,1737E-3,5C000000,-0724,0827,12266,027.8,045.4,0.477,735.5,01.18,0.508
2014-10-14 00:57:00,1826E-3,5C000000,-0724,0827,12304,027.8,045.4,0.477,735.5,01.18,0.508
2014-10-14 00:58:00,1887E-3,5C000000,-0724,0827,12230,027.8,045.4,0.477,735.5,01.18,0.508
2014-10-14 00:59:00,1865E-3,5C000000,-0724,0826,12406,027.8,045.4,0.477,735.5,01.18,0.508
2014-10-14 01:00:00,1774E-3,5C000000,-0724,0827,12157,027.8,045.4,0.477,735.5,01.18,0.508
2014-10-14 01:01:00,2024E-3,5C000000,-0724,0827,12189,027.8,045.4,0.477,735.5,01.18,0.508
2014-10-14 01:02:00,1781E-3,5C000000,-0724,0826,12295,027.8,045.4,0.477,735.5,01.18,0.508
2014-10-14 01:03:00,1802E-3,5C000000,-0724,0827,12078,027.8,045.4,0.477,735.5,01.18,0.508
2014-10-14 01:04:00,1743E-3,5C000000,-0724,0827,12211,027.7,045.4,0.477,735.5,01.18,0.508
2014-10-14 01:05:00,1728E-3,5C000000,-0724,0827,12226,027.7,045.4,0.477,735.5,01.18,0.508
2014-10-14 01:06:00,1817E-3,5C000000,-0724,0827,12078,027.7,045.5,0.477,735.4,01.18,0.508
2014-10-14 01:07:00,1797E-3,5C000000,-0724,0827,12211,027.7,045.5,0.477,735.4,01.18,0.508
2014-10-14 01:08:00,1753E-3,5C000000,-0724,0827,12130,027.7,045.4,0.477,735.4,01.18,0.508
2014-10-14 01:09:00,1778E-3,5C000000,-0724,0828,12217,027.7,045.5,0.477,735.5,01.18,0.508
2014-10-14 01:10:00,1740E-3,5C000000,-0724,0827,12336,027.8,045.4,0.477,735.4,01.18,0.508
2014-10-14 01:11:00,1743E-3,5C000000,-0724,0827,12343,027.7,045.4,0.477,735.4,01.18,0.508
2014-10-14 01:12:00,1786E-3,5C000000,-0724,0828,12310,027.7,045.4,0.477,735.5,01.18,0.508
2014-10-14 01:13:00,1746E-3,5C000000,-0724,0827,12246,027.7,045.4,0.477,735.5,01.18,0.508
2014-10-14 01:14:00,1780E-3,5C000000,-0724,0826,12213,027.7,045.4,0.477,735.5,01.18,0.508
2014-10-14 01:15:00,1763E-3,5C000000,-0724,0826,12357,027.7,045.4,0.477,735.5,01.18,0.508
2014-10-14 01:16:00,1875E-3,5C000000,-0724,0827,12108,027.7,045.4,0.477,735.4,01.18,0.508
2014-10-14 01:17:00,1758E-3,5C000000,-0724,0826,12278,027.7,045.4,0.477,735.4,01.18,0.508
2014-10-14 01:18:00,1758E-3,5C000000,-0724,0827,12206,027.7,045.4,0.477,735.4,01.18,0.508
2014-10-14 01:19:00,1793E-3,5C000000,-0724,0826,12315,027.7,045.4,0.477,735.4,01.18,0.508
2014-10-14 01:20:00,1797E-3,5C000000,-0724,0827,12134,027.7,045.4,0.477,735.4,01.18,0.508
2014-10-14 01:21:00,1801E-3,5C000000,-0724,0828,12312,027.7,045.4,0.477,735.4,01.18,0.508
2014-10-14 01:22:00,1984E-3,5C000000,-0724,0827,12147,027.7,045.4,0.477,735.4,01.18,0.508
2014-10-14 01:23:00,1839E-3,5C000000,-0724,0827,12341,027.7,045.4,0.477,735.4,01.18,0.508
2014-10-14 01:24:00,1723E-3,5C000000,-0724,0826,12237,027.7,045.5,0.477,735.4,01.18,0.508
2014-10-14 01:25:00,1914E-3,5C000000,-0724,0828,12182,027.7,045.5,0.477,735.4,01.18,0.508
2014-10-14 01:26:00,1755E-3,5C000000,-0724,0828,12231,027.7,045.4,0.477,735.4,01.18,0.508
2014-10-14 01:27:00,1811E-3,5C000000,-0724,0828,12141,027.7,045.5,0.477,735.4,01.18,0.508
2014-10-14 01:28:00,1694E-3,5C000000,-0724,0827,12202,027.7,045.4,0.477,735.4,01.18,0.508
2014-10-14 01:29:00,1711E-3,5C000000,-0724,0827,12218,027.7,045.5,0.477,735.4,01.18,0.508
2014-10-14 01:30:00,1807E-3,5C000000,-0724,0827,12404,027.8,045.4,0.477,735.4,01.18,0.508
2014-10-14 01:31:00,1886E-3,5C000000,-0724,0828,12310,027.7,045.5,0.477,735.4,01.18,0.508
2014-10-14 01:32:00,1696E-3,5C000000,-0724,0827,12233,027.7,045.4,0.477,735.4,01.18,0.508
2014-10-14 01:33:00,1735E-3,5C000000,-0724,0827,12173,027.7,045.4,0.477,735.4,01.18,0.508
2014-10-14 01:34:00,1845E-3,5C000000,-0724,0827,12220,027.7,045.4,0.477,735.4,01.18,0.508
2014-10-14 01:35:00,1805E-3,5C000000,-0724,0826,12205,027.7,045.4,0.477,735.4,01.18,0.508
2014-10-14 01:36:00,1790E-3,5C000000,-0724,0826,12255,027.6,045.4,0.477,735.4,01.18,0.508
2014-10-14 01:37:00,1710E-3,5C000000,-0724,0827,12164,027.6,045.4,0.477,735.4,01.18,0.508
2014-10-14 01:38:00,1860E-3,5C000000,-0724,0827,12273,027.7,045.4,0.477,735.4,01.18,0.508
2014-10-14 01:39:00,1900E-3,5C000000,-0724,0827,12328,027.7,045.4,0.477,735.4,01.18,0.508
2014-10-14 01:40:00,1788E-3,5C000000,-0724,0827,12354,027.7,045.4,0.477,735.4,01.18,0.508
2014-10-14 01:41:00,1880E-3,5C000000,-0724,0827,12041,027.7,045.4,0.477,735.4,01.18,0.508
2014-10-14 01:42:00,1931E-3,5C000000,-0724,0827,12153,027.7,045.4,0.477,735.4,01.18,0.508
2014-10-14 01:43:00,1976E-3,5C000000,-0724,0826,12317,027.7,045.4,0.477,735.4,01.18,0.508
2014-10-14 01:44:00,1708E-3,5C000000,-0724,0827,12257,027.7,045.4,0.477,735.4,01.18,0.508
2014-10-14 01:45:00,1786E-3,5C000000,-0724,0826,12067,027.7,045.4,0.477,735.4,01.18,0.508
2014-10-14 01:46:00,1789E-3,5C000000,-0724,0827,12125,027.7,045.4,0.477,735.4,01.18,0.508
2014-10-14 01:47:00,1821E-3,5C000000,-0724,0827,12283,027.7,045.4,0.477,735.4,01.18,0.508
2014-10-14 01:48:00,1854E-3,5C000000,-0724,0826,12052,027.7,045.4,0.477,735.4,01.18,0.508
2014-10-14 01:49:00,1843E-3,5C000000,-0724,0827,12256,027.7,045.4,0.476,735.4,01.18,0.508
2014-10-14 01:50:00,1787E-3,5C000000,-0724,0828,12285,027.7,045.4,0.477,735.4,01.18,0.508
2014-10-14 01:51:00,1907E-3,5C000000,-0724,0827,12286,027.7,045.4,0.477,735.4,01.18,0.508
2014-10-14 01:52:00,1840E-3,5C000000,-0724,0827,12293,027.7,045.4,0.477,735.4,01.18,0.508
2014-10-14 01:53:00,1901E-3,5C000000,-0724,0827,12246,027.7,045.4,0.477,735.4,01.18,0.508
2014-10-14 01:54:00,1702E-3,5C000000,-0724,0827,12106,027.7,045.4,0.476,735.4,01.18,0.508
2014-10-14 01:55:00,1867E-3,5C000000,-0724,0828,12273,027.7,045.4,0.477,735.4,01.18,0.508
2014-10-14 01:56:00,1739E-3,5C000000,-0724,0827,12175,027.7,045.4,0.477,735.4,01.18,0.508
2014-10-14 01:57:00,1906E-3,5C000000,-0724,0827,12257,027.6,045.4,0.477,735.4,01.18,0.508
2014-10-14 01:58:00,1763E-3,5C000000,-0724,0826,12305,027.6,045.4,0.477,735.3,01.18,0.508
2014-10-14 01:59:00,1734E-3,5C000000,-0724,0827,12248,027.6,045.4,0.477,735.3,01.18,0.508
2014-10-14 02:00:00,1740E-3,5C000000,-0724,0827,12270,027.7,045.4,0.477,735.3,01.18,0.508
2014-10-14 02:01:00,1725E-3,5C000000,-0724,0827,12080,027.6,045.4,0.477,735.3,01.18,0.508
2014-10-14 02:02:00,1821E-3,5C000000,-0724,0828,12125,027.7,045.4,0.477,735.3,01.18,0.508
2014-10-14 02:03:00,1769E-3,5C000000,-0724,0827,12157,027.7,045.4,0.477,735.4,01.18,0.508
2014-10-14 02:04:00,1793E-3,5C000000,-0724,0826,12234,027.7,045.4,0.477,735.4,01.18,0.508
2014-10-14 02:05:00,1780E-3,5C000000,-0724,0827,12405,027.7,045.4,0.477,735.4,01.18,0.508
2014-10-14 02:06:00,1758E-3,5C000000,-0724,0827,12278,027.7,045.4,0.477,735.4,01.18,0.508
2014-10-14 02:07:00,1716E-3,5C000000,-0724,0827,12298,027.7,045.4,0.477,735.4,01.18,0.508
2014-10-14 02:08:00,1828E-3,5C000000,-0724,0828,12291,027.7,045.4,0.477,735.4,01.18,0.508
2014-10-14 02:09:00,1912E-3,5C000000,-0724,0827,12177,027.7,045.4,0.477,735.4,01.18,0.508
2014-10-14 02:10:00,1835E-3,5C000000,-0724,0827,12186,027.7,045.4,0.477,735.4,01.18,0.508
2014-10-14 02:11:00,1711E-3,5C000000,-0724,0827,12162,027.7,045.5,0.477,735.4,01.18,0.508
2014-10-14 02:12:00,1855E-3,5C000000,-0724,0826,12428,027.7,045.4,0.477,735.3,01.18,0.508
2014-10-14 02:13:00,1707E-3,5C000000,-0724,0826,12263,027.7,045.4,0.477,735.4,01.18,0.508
2014-10-14 02:14:00,1801E-3,5C000000,-0724,0827,12181,027.7,045.4,0.477,735.4,01.18,0.508
2014-10-14 02:15:00,1805E-3,5C000000,-0724,0827,12185,027.7,045.4,0.477,735.4,01.18,0.508
2014-10-14 02:16:00,1745E-3,5C000000,-0724,0827,12203,027.7,045.4,0.477,735.4,01.18,0.508
2014-10-14 02:17:00,1907E-3,5C000000,-0724,0827,12399,027.6,045.4,0.477,735.4,01.18,0.508
2014-10-14 02:18:00,1895E-3,5C000000,-0724,0827,12057,027.6,045.5,0.477,735.4,01.18,0.508
2014-10-14 02:19:00,1735E-3,5C000000,-0724,0826,12160,027.6,045.4,0.477,735.4,01.18,0.508
2014-10-14 02:20:00,1845E-3,5C000000,-0724,0827,12179,027.6,045.5,0.477,735.4,01.18,0.508
2014-10-14 02:21:00,1998E-3,5C000000,-0724,0826,12316,027.7,045.4,0.477,735.4,01.18,0.508
2014-10-14 02:22:00,1795E-3,5C000000,-0724,0827,12357,027.7,045.4,0.477,735.4,01.18,0.508
2014-10-14 02:23:00,1792E-3,5C000000,-0724,0827,12202,027.7,045.4,0.477,735.4,01.18,0.508
2014-10-14 02:24:00,1734E-3,5C000000,-0724,0827,12271,027.7,045.4,0.477,735.4,01.18,0.508
2014-10-14 02:25:00,1882E-3,5C000000,-0724,0827,12359,027.7,045.4,0.477,735.4,01.18,0.508
2014-10-14 02:26:00,1781E-3,5C000000,-0724,0827,12309,027.7,045.4,0.477,735.4,01.18,0.508
2014-10-14 02:27:00,1767E-3,5C000000,-0724,0826,12238,027.7,045.4,0.477,735.4,01.18,0.508
2014-10-14 02:28:00,1961E-3,5C000000,-0724,0827,12211,027.7,045.4,0.477,735.4,01.18,0.508
2014-10-14 02:29:00,1850E-3,5C000000,-0724,0828,12070,027.7,045.4,0.476,735.4,01.18,0.508
2014-10-14 02:30:00,1886E-3,5C000000,-0724,0827,12017,027.7,045.4,0.477,735.4,01.18,0.508
2014-10-14 02:31:00,1756E-3,5C000000,-0724,0828,12158,027.7,045.4,0.477,735.4,01.18,0.508
2014-10-14 02:32:00,1912E-3,5C000000,-0724,0827,12094,027.7,045.4,0.477,735.4,01.18,0.508
2014-10-14 02:33:00,1812E-3,5C000000,-0724,0827,12223,027.7,045.5,0.477,735.4,01.18,0.508
2014-10-14 02:34:00,1773E-3,5C000000,-0724,0828,12167,027.6,045.5,0.477,735.4,01.18,0.508
2014-10-14 02:35:00,1740E-3,5C000000,-0724,0827,12420,027.6,045.4,0.477,735.4,01.18,0.508
2014-10-14 02:36:00,1838E-3,5C000000,-0724,0827,12252,027.6,045.4,0.477,735.4,01.18,0.508
2014-10-14 02:37:00,1799E-3,5C000000,-0724,0827,12315,027.6,045.4,0.477,735.4,01.18,0.508
2014-10-14 02:38:00,1783E-3,5C000000,-0724,0828,12172,027.6,045.5,0.477,735.4,01.18,0.508
2014-10-14 02:39:00,1935E-3,5C000000,-0724,0827,12276,027.6,045.4,0.477,735.4,01.18,0.508
2014-10-14 02:40:00,1699E-3,5C000000,-0724,0827,12200,027.6,045.5,0.477,735.4,01.18,0.508
2014-10-14 02:41:00,1870E-3,5C000000,-0724,0828,12170,027.6,045.4,0.477,735.4,01.18,0.508
2014-10-14 02:42:00,1732E-3,5C000000,-0724,0827,12164,027.6,045.4,0.477,735.4,01.18,0.508
2014-10-14 02:43:00,1832E-3,5C000000,-0724,0827,12193,027.6,045.4,0.477,735.4,01.18,0.508
2014-10-14 02:44:00,1834E-3,5C000000,-0724,0828,12215,027.7,045.4,0.477,735.4,01.18,0.508
2014-10-14 02:45:00,1667E-3,5C000000,-0724,0827,12152,027.7,045.4,0.477,735.4,01.18,0.508
2014-10-14 02:46:00,1769E-3,5C000000,-0724,0827,12252,027.7,045.4,0.477,735.4,01.18,0.508
2014-10-14 02:47:00,1812E-3,5C000000,-0724,0828,12320,027.7,045.4,0.477,735.4,01.18,0.508
2014-10-14 02:48:00,1938E-3,5C000000,-0724,0827,12261,027.6,045.5,0.477,735.3,01.18,0.508
2014-10-14 02:49:00,1845E-3,5C000000,-0724,0827,12286,027.7,045.4,0.477,735.3,01.18,0.508
2014-10-14 02:50:00,1797E-3,5C000000,-0724,0827,12230,027.7,045.4,0.477,735.4,01.18,0.508
2014-10-14 02:51:00,1761E-3,5C000000,-0724,0827,12261,027.6,045.4,0.477,735.3,01.18,0.508
2014-10-14 02:52:00,1784E-3,5C000000,-0724,0828,12356,027.7,045.4,0.477,735.4,01.18,0.508
2014-10-14 02:53:00,1903E-3,5C000000,-0724,0828,12165,027.6,045.4,0.477,735.4,01.18,0.508
2014-10-14 02:54:00,1752E-3,5C000000,-0724,0828,12140,027.6,045.4,0.477,735.3,01.18,0.508
2014-10-14 02:55:00,1838E-3,5C000000,-0724,0827,12185,027.6,045.4,0.477,735.3,01.18,0.508
2014-10-14 02:56:00,1927E-3,5C000000,-0724,0828,12274,027.6,045.4,0.477,735.3,01.18,0.508
2014-10-14 02:57:00,1819E-3,5C000000,-0724,0827,12212,027.6,045.4,0.477,735.3,01.18,0.508
2014-10-14 02:58:00,1792E-3,5C000000,-0724,0828,12334,027.6,045.4,0.477,735.3,01.18,0.508
2014-10-14 02:59:00,1915E-3,5C000000,-0724,0827,12265,027.6,045.4,0.477,735.3,01.18,0.508
2014-10-14 03:00:00,1670E-3,5C000000,-0724,0828,12307,027.6,045.5,0.477,735.3,01.18,0.508
2014-10-14 03:01:00,1729E-3,5C000000,-0724,0827,12268,027.6,045.5,0.477,735.3,01.18,0.508
2014-10-14 03:02:00,1821E-3,5C000000,-0724,0828,12166,027.6,045.4,0.477,735.3,01.18,0.508
2014-10-14 03:03:00,1814E-3,5C000000,-0724,0827,12298,027.6,045.5,0.477,735.3,01.18,0.508
2014-10-14 03:04:00,1874E-3,5C000000,-0724,0828,12380,027.7,045.5,0.477,735.3,01.18,0.508
2014-10-14 03:05:00,1846E-3,5C000000,-0724,0827,12241,027.6,045.4,0.477,735.3,01.18,0.508
2014-10-14 03:06:00,1717E-3,5C000000,-0724,0828,12081,027.7,045.4,0.477,735.3,01.18,0.508
2014-10-14 03:07:00,1779E-3,5C000000,-0724,0828,12301,027.7,045.4,0.477,735.3,01.18,0.508
2014-10-14 03:08:00,1759E-3,5C000000,-0724,0826,12240,027.7,045.4,0.477,735.3,01.18,0.508
2014-10-14 03:09:00,1827E-3,5C000000,-0724,0828,12204,027.7,045.5,0.477,735.4,01.18,0.508
2014-10-14 03:10:00,1632E-3,5C000000,-0724,0826,12214,027.6,045.4,0.477,735.4,01.18,0.508
2014-10-14 03:11:00,1723E-3,5C000000,-0724,0827,11975,027.6,045.4,0.477,735.4,01.18,0.508
2014-10-14 03:12:00,1751E-3,5C000000,-0724,0829,12359,027.6,045.4,0.477,735.4,01.18,0.508
2014-10-14 03:13:00,1983E-3,5C000000,-0724,0827,12099,027.5,045.5,0.477,735.4,01.18,0.508
2014-10-14 03:14:00,1852E-3,5C000000,-0724,0828,12400,027.6,045.4,0.477,735.4,01.18,0.508
2014-10-14 03:15:00,1756E-3,5C000000,-0724,0827,12111,027.6,045.4,0.477,735.4,01.18,0.508
2014-10-14 03:16:00,1822E-3,5C000000,-0724,0827,12302,027.6,045.4,0.477,735.4,01.18,0.508
2014-10-14 03:17:00,1756E-3,5C000000,-0724,0827,12321,027.6,045.5,0.477,735.4,01.18,0.508
2014-10-14 03:18:00,1745E-3,5C000000,-0724,0827,12206,027.6,045.5,0.477,735.4,01.18,0.508
2014-10-14 03:19:00,1853E-3,5C000000,-0724,0826,12115,027.6,045.4,0.477,735.4,01.18,0.508
2014-10-14 03:20:00,1861E-3,5C000000,-0724,0827,12295,027.6,045.5,0.477,735.4,01.18,0.508
2014-10-14 03:21:00,1804E-3,5C000000,-0724,0826,12023,027.6,045.4,0.477,735.3,01.18,0.508
2014-10-14 03:22:00,1914E-3,5C000000,-0724,0827,12091,027.6,045.4,0.477,735.4,01.18,0.508
2014-10-14 03:23:00,1788E-3,5C000000,-0724,0826,12373,027.6,045.4,0.477,735.4,01.18,0.508
2014-10-14 03:24:00,1795E-3,5C000000,-0724,0827,12278,027.6,045.4,0.477,735.4,01.18,0.508
2014-10-14 03:25:00,1817E-3,5C000000,-0724,0827,12159,027.7,045.4,0.477,735.4,01.18,0.508
2014-10-14 03:26:00,1787E-3,5C000000,-0724,0826,12246,027.6,045.4,0.477,735.4,01.18,0.508
2014-10-14 03:27:00,1836E-3,5C000000,-0724,0827,12307,027.6,045.4,0.477,735.4,01.18,0.508
2014-10-14 03:28:00,1874E-3,5C000000,-0724,0826,12119,027.6,045.4,0.477,735.4,01.18,0.508
2014-10-14 03:29:00,1821E-3,5C000000,-0724,0826,12194,027.6,045.4,0.477,735.4,01.18,0.508
2014-10-14 03:30:00,1740E-3,5C000000,-0724,0827,12147,027.6,045.4,0.477,735.4,01.18,0.508
2014-10-14 03:31:00,1751E-3,5C000000,-0724,0827,12271,027.6,045.4,0.477,735.4,01.18,0.508
2014-10-14 03:32:00,1934E-3,5C000000,-0724,0826,12273,027.6,045.4,0.477,735.4,01.18,0.508
2014-10-14 03:33:00,1776E-3,5C000000,-0724,0828,12313,027.6,045.4,0.477,735.4,01.18,0.508
2014-10-14 03:34:00,1707E-3,5C000000,-0724,0828,12244,027.6,045.5,0.477,735.4,01.18,0.508
2014-10-14 03:35:00,1777E-3,5C000000,-0724,0827,12242,027.6,045.5,0.477,735.4,01.18,0.508
2014-10-14 03:36:00,1846E-3,5C000000,-0724,0826,12187,027.6,045.4,0.477,735.4,01.18,0.508
2014-10-14 03:37:00,1838E-3,5C000000,-0724,0827,12286,027.5,045.4,0.477,735.4,01.18,0.508
2014-10-14 03:38:00,1904E-3,5C000000,-0724,0827,12078,027.5,045.4,0.477,735.4,01.18,0.508
2014-10-14 03:39:00,1817E-3,5C000000,-0724,0827,12092,027.5,045.4,0.477,735.4,01.18,0.508
2014-10-14 03:40:00,1876E-3,5C000000,-0724,0827,12255,027.5,045.4,0.477,735.4,01.18,0.508
2014-10-14 03:41:00,1784E-3,5C000000,-0724,0827,12124,027.5,045.4,0.477,735.4,01.18,0.508
2014-10-14 03:42:00,1686E-3,5C000000,-0724,0827,12208,027.5,045.4,0.477,735.4,01.18,0.508
2014-10-14 03:43:00,1630E-3,5C000000,-0724,0827,12197,027.5,045.4,0.477,735.4,01.18,0.508
2014-10-14 03:44:00,1796E-3,5C000000,-0724,0828,12199,027.5,045.4,0.477,735.4,01.18,0.508
2014-10-14 03:45:00,1853E-3,5C000000,-0724,0828,12163,027.5,045.4,0.477,735.4,01.18,0.508
2014-10-14 03:46:00,1691E-3,5C000000,-0724,0827,12286,027.5,045.4,0.477,735.4,01.18,0.508
2014-10-14 03:47:00,1853E-3,5C000000,-0724,0827,12238,027.5,045.5,0.477,735.4,01.18,0.508
2014-10-14 03:48:00,1815E-3,5C000000,-0724,0828,12141,027.4,045.4,0.477,735.4,01.18,0.508
2014-10-14 03:49:00,1824E-3,5C000000,-0724,0827,12193,027.4,045.4,0.477,735.4,01.18,0.508
2014-10-14 03:50:00,1858E-3,5C000000,-0724,0827,12223,027.5,045.5,0.477,735.4,01.18,0.508
2014-10-14 03:51:00,1769E-3,5C000000,-0724,0827,12124,027.5,045.4,0.477,735.4,01.18,0.508
2014-10-14 03:52:00,1722E-3,5C000000,-0724,0828,12081,027.5,045.4,0.478,735.4,01.18,0.508
2014-10-14 03:53:00,1732E-3,5C000000,-0724,0827,12121,027.5,045.4,0.477,735.4,01.18,0.508
2014-10-14 03:54:00,1690E-3,5C000000,-0724,0827,12011,027.5,045.4,0.477,735.4,01.18,0.508
2014-10-14 03:55:00,1783E-3,5C000000,-0724,0827,12013,027.6,045.4,0.477,735.4,01.18,0.508
2014-10-14 03:56:00,1739E-3,5C000000,-0724,0827,12051,027.5,045.4,0.477,735.4,01.18,0.508
2014-10-14 03:57:00,1834E-3,5C000000,-0724,0827,12252,027.6,045.4,0.477,735.4,01.18,0.508
2014-10-14 03:58:00,1779E-3,5C000000,-0724,0827,12193,027.6,045.4,0.477,735.4,01.18,0.508
2014-10-14 03:59:00,1792E-3,5C000000,-0724,0827,12382,027.6,045.4,0.477,735.4,01.18,0.508
2014-10-14 04:00:00,1874E-3,5C000000,-0724,0828,12092,027.6,045.4,0.477,735.4,01.18,0.508
2014-10-14 04:01:00,1940E-3,5C000000,-0724,0828,12177,027.6,045.4,0.477,735.4,01.18,0.508
2014-10-14 04:02:00,1752E-3,5C000000,-0724,0828,12227,027.6,045.4,0.477,735.4,01.18,0.508
2014-10-14 04:03:00,1860E-3,5C000000,-0724,0827,12249,027.6,045.5,0.477,735.4,01.18,0.508
2014-10-14 04:04:00,1799E-3,5C000000,-0724,0829,12321,027.6,045.5,0.477,735.4,01.18,0.508
2014-10-14 04:05:00,1775E-3,5C000000,-0724,0827,12317,027.6,045.4,0.477,735.4,01.18,0.508
2014-10-14 04:06:00,1869E-3,5C000000,-0724,0827,12136,027.6,045.4,0.477,735.4,01.18,0.508
2014-10-14 04:07:00,1770E-3,5C000000,-0724,0826,12007,027.5,045.4,0.477,735.4,01.18,0.508
2014-10-14 04:08:00,1741E-3,5C000000,-0724,0827,12307,027.5,045.4,0.477,735.4,01.18,0.508
2014-10-14 04:09:00,1684E-3,5C000000,-0724,0827,12211,027.5,045.4,0.477,735.4,01.18,0.508
2014-10-14 04:10:00,1863E-3,5C000000,-0724,0828,12272,027.5,045.4,0.477,735.4,01.18,0.508
2014-10-14 04:11:00,1831E-3,5C000000,-0724,0828,12192,027.5,045.4,0.477,735.4,01.18,0.508
2014-10-14 04:12:00,1899E-3,5C000000,-0724,0828,12005,027.5,045.4,0.477,735.4,01.18,0.508
2014-10-14 04:13:00,1820E-3,5C000000,-0724,0827,12270,027.5,045.4,0.477,735.4,01.18,0.508
2014-10-14 04:14:00,1842E-3,5C000000,-0724,0827,12214,027.5,045.5,0.477,735.4,01.18,0.508
2014-10-14 04:15:00,1750E-3,5C000000,-0724,0826,12179,027.5,045.4,0.477,735.4,01.18,0.508
2014-10-14 04:16:00,1778E-3,5C000000,-0724,0827,12148,027.5,045.4,0.477,735.4,01.18,0.508
2014-10-14 04:17:00,1789E-3,5C000000,-0724,0827,12100,027.5,045.4,0.477,735.4,01.18,0.508
2014-10-14 04:18:00,1745E-3,5C000000,-0724,0827,12217,027.5,045.5,0.477,735.4,01.18,0.508
2014-10-14 04:19:00,1748E-3,5C000000,-0724,0827,12366,027.5,045.4,0.477,735.4,01.18,0.508
2014-10-14 04:20:00,1716E-3,5C000000,-0724,0826,12225,027.4,045.4,0.477,735.4,01.18,0.508